Temperature
18 18 18 18 18 18 18 18 18 18 18 18 18 18 18 18 18 17 17 17 17 17 18 18 18 18 18 18 18 18 18 18 18 18 18 18 18 18 18 18 18 18 18
18 18 18 18 18 18 18 18 18 18 17 17 17 17 17 17 17 17 17 17 17 17 17 17 17 17 17 18 18 18 18 18 18 18 18 18 18 18 18 18 18 18 18
18 18 18 18 18 18 18 18 17 17 17 17 17 17 17 17 17 17 17 17 17 17 17 17 17 17 17 17 17 17 17 18 18 18 18 18 18 18 18 18 18 18 18
18 18 18 18 18 18 17 17 17 17 17 17 17 16 16 16 16 16 16 16 16 16 16 17 17 17 17 17 17 17 17 17 17 18 18 18 18 18 18 18 18 18 18
18 18 18 18 17 17 17 17 17 17 17 16 16 16 16 16 16 16 16 16 16 16 16 16 16 17 17 17 17 17 17 17 17 17 17 17 17 17 18 17 18 18 18
18 18 17 17 17 17 17 17 17 16 16 16 16 16 16 16 15 15 15 15 16 16 16 16 16 16 16 16 17 17 17 17 17 17 17 17 17 17 17 17 17 18 18
18 18 17 17 17 17 17 17 17 16 16 16 16 16 15 15 15 15 15 15 15 15 15 16 16 16 16 16 16 16 16 17 17 17 17 17 17 17 17 17 17 17 18
18 18 17 17 17 17 17 17 16 16 16 16 16 16 15 15 15 15 15 15 15 15 15 15 15 15 16 16 16 16 16 16 17 17 17 17 17 17 17 17 17 17 17
18 18 17 17 17 17 16 16 16 16 16 16 16 15 15 15 15 15 15 15 15 15 15 15 15 15 15 16 16 16 16 16 16 17 17 17 17 17 17 17 17 17 17
18 18 17 17 17 17 16 16 16 16 16 16 15 15 15 15 15 15 15 15 15 15 15 15 15 15 15 15 16 16 16 16 16 17 17 17 17 17 17 17 17 17 17
18 18 18 17 17 17 17 16 16 16 16 16 15 15 15 15 15 15 15 14 14 14 14 15 15 15 15 15 15 16 16 16 16 16 16 17 17 17 17 17 17 17 17
18 18 18 17 17 17 17 16 16 16 16 16 15 15 15 15 15 15 14 14 14 14 14 14 15 15 15 15 15 15 16 16 16 16 16 16 17 17 17 17 17 17 17
18 18 18 18 17 17 17 17 16 16 16 16 15 15 15 15 15 14 14 14 14 14 14 14 15 15 15 15 15 15 15 16 16 16 16 16 16 16 17 17 17 17 17
19 18 18 18 17 17 17 17 16 16 16 16 15 15 15 15 14 14 14 14 14 14 14 14 14 14 15 15 15 15 15 15 15 16 16 16 16 16 16 17 17 17 17
19 18 18 18 18 17 17 17 16 16 16 16 15 15 15 15 14 14 14 14 14 14 14 14 14 14 15 15 15 15 15 15 15 15 16 16 16 16 16 16 17 17 17
19 19 18 18 18 17 17 17 16 16 16 16 15 15 15 14 14 14 14 14 14 14 14 14 14 14 15 15 15 15 15 15 15 15 16 16 16 16 16 16 16 16 17
19 19 18 18 18 17 17 17 16 16 16 16 15 15 15 14 14 14 14 14 14 14 14 14 14 14 15 15 15 15 15 15 15 15 15 16 16 16 16 16 16 16 16
19 19 19 18 18 17 17 17 16 16 16 15 15 15 15 14 14 14 14 14 14 14 14 14 14 15 15 15 15 15 15 15 15 15 15 15 16 16 16 16 16 16 16
19 19 19 18 18 18 17 17 16 16 16 15 15 15 15 14 14 14 14 14 14 14 14 14 14 14 15 15 15 15 15 15 15 15 15 15 15 16 16 16 16 16 16
19 19 19 18 18 17 17 17 16 16 16 15 15 15 15 14 14 14 14 14 14 14 14 14 14 14 14 15 15 15 15 15 15 15 15 15 15 15 16 16 16 16 16
20 19 19 18 18 18 17 17 16 16 16 15 15 15 15 15 14 14 14 14 14 14 14 14 14 14 15 15 15 15 15 15 15 15 15 15 15 15 15 16 16 16 16
20 19 19 19 18 18 17 17 16 16 16 15 15 15 15 15 14 14 14 14 14 14 14 14 14 14 14 14 15 15 15 15 15 15 15 15 15 15 15 15 15 16 16
20 19 19 19 18 18 17 17 16 16 16 15 15 15 15 15 14 14 14 14 14 14 14 14 14 14 14 14 14 14 14 14 14 14 14 15 15 15 15 15 15 15 15
20 19 19 19 18 18 17 17 17 16 16 15 15 15 15 15 14 14 14 14 14 14 14 14 14 14 14 14 14 14 14 14 14 14 14 14 14 15 15 15 15 15 15
20 19 19 18 18 18 17 17 17 16 16 16 15 15 15 15 15 14 14 14 14 14 14 14 14 14 14 14 14 14 14 14 14 14 14 14 14 14 15 15 15 15 15
19 19 19 18 18 18 17 17 17 16 16 16 15 15 15 15 15 15 14 14 14 14 14 14 14 14 14 14 14 14 14 14 13 14 13 14 14 14 14 14 15 15 15
Wind_Speed
1 2 7 9 10 10 10 10 10 10 10 10 10 10 9 9 8 8 8 8 7 7 7 7 6 6 7 6 6 6 6 6 6 7 6 6 6 6 5 4 4 3 3
4 5 9 10 10 10 10 10 10 10 10 10 10 10 9 9 9 8 8 7 7 7 7 7 7 6 6 6 6 6 6 6 7 6 7 6 6 6 5 4 4 3 4
5 6 8 10 10 10 10 10 10 10 9 9 9 9 9 8 8 8 8 7 7 7 7 7 7 6 6 6 6 6 6 6 7 6 7 6 5 5 5 4 4 4 4
6 7 8 10 10 9 9 9 10 9 9 9 9 9 8 8 8 8 7 7 7 7 7 7 7 6 6 6 6 7 7 6 6 6 5 5 5 4 5 5 5 5 5
6 6 8 10 10 10 9 9 9 9 8 8 8 8 8 8 8 8 8 8 7 7 7 7 7 7 7 7 7 6 6 6 6 6 5 5 4 4 4 4 5 5 5
5 6 8 10 10 9 9 9 8 8 8 8 8 8 7 7 7 7 8 8 8 8 7 7 7 7 7 7 7 7 6 6 6 5 4 4 4 3 3 4 4 5 5
5 6 7 9 9 8 8 8 8 7 7 7 7 7 7 7 7 7 8 8 8 8 8 7 7 7 7 7 7 7 6 6 5 4 4 4 4 3 3 2 3 4 4
5 5 6 7 8 7 7 7 6 6 6 6 6 6 6 6 6 7 7 8 8 8 9 9 8 8 8 7 7 7 6 5 4 4 4 4 4 3 2 2 2 3 4
4 4 3 4 4 5 5 4 5 5 5 6 7 7 7 7 7 7 7 8 9 9 9 10 9 9 9 8 7 7 6 4 3 3 3 4 5 3 2 1 2 2 3
3 2 2 2 3 3 3 3 4 5 6 7 8 8 8 9 9 8 8 9 9 9 10 10 10 10 9 8 8 7 7 5 4 4 3 4 4 3 2 1 1 2 3
1 1 1 1 1 2 2 3 5 6 8 8 9 9 9 9 9 9 9 9 9 9 10 11 10 10 9 9 9 8 7 5 4 4 4 4 4 3 2 2 2 1 2
3 2 1 1 0 1 2 4 5 6 7 8 7 8 8 8 8 8 10 10 10 10 10 11 11 10 9 8 8 8 6 5 4 4 5 6 5 3 3 3 2 1 2
4 3 2 2 1 0 1 3 4 5 6 6 7 6 7 8 8 9 9 10 10 10 9 10 10 9 8 7 6 5 5 5 4 4 6 6 5 3 3 2 2 2 1
4 3 2 2 1 1 1 2 3 3 4 4 6 6 6 5 5 6 6 7 7 7 7 7 6 7 7 7 5 4 5 4 4 5 6 6 5 4 3 2 2 2 2
4 3 2 3 2 2 2 2 3 2 3 4 5 6 6 4 3 4 4 6 7 7 6 5 5 6 6 6 6 4 4 4 5 5 5 6 5 5 3 2 2 1 1
4 3 2 3 3 3 3 2 2 3 4 5 5 6 6 5 4 3 4 4 6 6 6 5 4 4 4 4 5 5 4 4 5 5 5 5 6 5 4 3 3 2 2
4 3 3 3 3 4 4 3 3 4 4 4 4 5 6 6 5 4 3 4 5 7 6 5 5 5 4 4 5 5 4 4 5 5 5 5 5 6 6 4 3 3 2
5 4 3 4 5 5 4 4 4 4 4 4 4 6 6 6 6 5 3 4 7 7 5 4 4 4 5 5 4 4 4 4 5 5 5 6 6 6 6 5 5 4 3
5 5 5 5 6 5 5 5 5 5 4 4 5 5 6 6 6 5 4 4 7 5 4 4 4 3 4 5 4 4 5 5 5 5 6 6 7 7 6 6 6 5 4
5 6 6 6 6 6 5 4 4 4 3 4 4 4 5 6 6 6 4 5 6 4 5 5 4 4 3 4 3 4 4 5 5 6 5 6 7 7 7 7 6 6 5
6 6 6 6 5 4 3 3 3 2 2 2 3 5 5 5 6 5 4 4 5 4 4 5 3 5 5 4 3 4 4 4 5 6 5 5 6 7 7 7 6 6 5
6 6 6 6 5 4 3 2 2 2 1 1 2 5 6 6 6 4 4 3 4 4 6 6 4 3 4 5 3 3 4 5 5 5 5 6 6 6 6 7 7 7 6
5 6 6 5 5 4 4 4 3 3 3 3 4 4 5 6 6 5 4 3 4 3 4 4 4 4 3 4 4 3 3 2 3 4 5 5 6 5 5 5 7 7 7
5 5 6 6 5 4 4 4 4 3 2 1 2 2 4 6 6 6 5 4 3 3 4 4 4 3 3 3 3 3 2 1 1 3 4 4 5 5 5 5 5 6 6
5 6 6 6 5 4 4 5 5 4 2 1 2 3 4 4 6 6 5 4 3 3 3 4 4 4 3 2 2 2 3 3 2 2 3 5 4 4 4 4 4 5 6
5 6 6 7 5 4 5 4 5 4 3 3 3 3 3 3 4 5 4 4 3 3 3 3 3 3 3 2 2 2 2 2 1 1 1 3 4 4 4 4 3 4 5
Wind_Direction
161 148 120 112 108 106 103 100 95 91 90 87 84 82 81 79 77 74 71 69 67 63 57 54 52 46 42 43 38 34 35 34 31 29 33 35 26 19 16 22 19 1 9
141 130 122 116 111 106 103 99 94 90 86 84 81 78 76 74 72 67 63 61 57 53 47 39 38 35 31 31 28 23 24 27 27 27 30 27 18 15 18 22 17 17 14
116 117 118 116 113 107 101 96 92 88 84 81 79 77 75 70 65 61 56 51 46 42 39 35 29 25 23 23 18 14 15 19 20 22 24 16 5 16 18 22 22 23 25
118 118 119 116 113 109 103 97 92 88 84 82 79 74 71 67 61 56 52 45 40 36 32 29 22 19 16 15 13 10 10 11 17 18 20 9 1 16 18 22 26 29 32
110 112 119 116 112 108 103 98 94 89 86 83 78 72 67 60 54 49 44 40 35 30 29 27 21 16 12 10 9 7 7 7 15 18 17 7 356 359 13 21 27 29 32
106 112 121 118 113 109 104 101 97 90 85 80 75 68 61 54 48 42 36 31 28 25 23 20 14 8 6 4 1 0 0 2 14 14 6 358 345 343 5 17 25 25 29
119 118 124 121 117 113 108 102 94 87 81 72 64 55 47 41 38 34 28 24 21 17 15 12 5 0 355 353 351 349 350 354 10 12 1 347 333 334 356 12 17 20 25
126 120 121 123 121 118 112 105 96 85 69 56 45 37 30 25 23 22 21 15 11 11 10 8 5 1 358 355 353 350 348 352 354 358 343 334 322 329 352 15 17 14 25
113 107 98 102 112 117 112 102 89 70 51 39 32 29 25 19 15 12 10 6 6 8 8 6 3 2 2 360 360 0 360 3 14 349 336 324 314 318 338 1 21 22 24
89 84 84 76 73 64 51 56 53 42 34 30 29 26 26 24 19 13 8 3 2 6 8 8 8 10 9 8 8 9 13 18 16 356 335 316 316 319 321 346 15 30 32
129 69 77 67 58 44 14 19 26 26 24 25 25 24 25 21 19 18 14 13 12 13 14 15 16 15 15 13 12 17 24 23 10 355 340 326 329 330 340 345 354 23 40
197 222 216 193 212 13 359 19 23 25 27 25 26 32 36 34 30 29 25 26 26 25 20 19 19 18 18 13 12 21 21 14 9 349 339 336 335 339 354 353 336 1 24
205 215 205 203 210 89 1 15 28 31 30 31 34 42 52 48 39 34 29 22 20 20 19 13 14 11 12 11 7 10 10 10 0 347 337 339 338 338 348 347 329 345 6
193 214 212 176 151 144 87 58 55 44 38 35 38 49 57 48 35 27 26 17 16 12 10 9 6 4 10 12 9 4 4 2 355 350 342 346 348 339 337 350 352 348 354
187 199 187 152 141 134 106 83 79 62 51 49 49 47 59 59 38 28 22 20 14 11 8 2 3 4 7 6 8 8 2 354 353 354 346 351 358 353 341 351 0 342 339
186 178 159 149 146 129 107 94 86 77 70 63 50 48 57 59 49 35 22 16 9 4 4 5 5 2 0 3 5 9 7 0 357 354 354 357 2 3 2 356 351 350 5
177 168 158 149 125 118 112 109 99 90 80 65 54 52 56 54 48 43 27 11 359 0 7 12 10 14 13 13 12 9 13 10 12 8 9 8 8 9 8 9 9 6 5
157 155 144 128 116 109 102 98 90 83 74 58 50 48 48 46 48 47 31 7 360 9 14 11 12 12 9 8 8 8 13 14 18 18 24 20 17 13 9 13 21 18 14
156 143 121 112 113 107 96 89 82 73 60 47 43 40 38 39 45 50 33 9 9 17 14 12 20 17 6 1 7 22 18 19 15 24 24 21 19 17 16 16 21 22 22
137 127 120 108 104 101 90 80 68 57 41 36 32 30 33 35 40 44 35 17 17 19 14 13 16 19 15 358 16 25 19 19 25 26 20 21 21 22 25 26 22 16 23
129 129 130 119 116 110 98 95 88 63 23 12 11 18 24 27 31 40 34 20 19 24 13 9 13 18 14 1 27 13 7 19 35 27 17 21 20 18 23 26 24 20 17
141 139 133 130 127 121 112 113 112 110 65 3 353 10 19 19 19 26 34 18 13 18 17 17 22 18 15 21 40 45 12 357 2 13 16 23 15 15 20 21 22 21 19
141 148 143 133 127 122 110 94 74 55 35 17 8 0 360 9 18 25 28 26 18 25 18 14 21 36 21 15 39 74 74 0 328 343 7 18 13 15 9 13 21 17 17
151 142 133 128 121 113 111 106 103 92 67 343 329 340 351 11 17 20 23 27 25 23 20 12 31 33 45 22 13 36 80 140 49 346 343 357 6 12 7 10 13 12 15
133 132 128 120 111 106 105 109 103 93 86 12 7 11 7 4 13 17 22 26 20 15 15 19 26 36 44 48 29 18 38 45 56 81 345 335 346 348 353 353 1 6 9
110 120 125 120 110 106 104 102 107 107 92 61 32 17 3 356 357 8 17 22 19 15 8 10 22 31 34 46 46 45 51 40 12 59 5 329 329 322 331 343 355 353 359
Height
1528 1529 1529 1530 1530 1531 1532 1533 1533 1533 1534 1534 1534 1534 1534 1534 1533 1533 1533 1533 1533 1533 1532 1532 1532 1532 1532 1531 1531 1530 1530 1529 1529 1528 1527 1526 1526 1525 1524 1522 1522 1521 1520
1529 1530 1530 1531 1531 1532 1533 1533 1534 1534 1534 1534 1534 1534 1534 1534 1534 1534 1534 1533 1533 1533 1532 1532 1532 1532 1532 1531 1531 1531 1530 1530 1529 1528 1527 1527 1526 1525 1524 1523 1522 1520 1519
1530 1531 1531 1532 1532 1533 1533 1534 1534 1534 1535 1535 1535 1535 1535 1535 1534 1534 1534 1533 1533 1533 1532 1532 1532 1531 1531 1531 1531 1530 1530 1530 1529 1528 1528 1527 1526 1525 1524 1523 1522 1521 1519
1531 1532 1532 1533 1533 1534 1534 1535 1535 1535 1535 1535 1536 1536 1535 1535 1535 1534 1534 1533 1533 1532 1532 1531 1531 1531 1531 1530 1530 1530 1530 1529 1529 1528 1528 1527 1526 1525 1524 1523 1522 1521 1520
1533 1533 1534 1534 1535 1535 1536 1536 1536 1536 1536 1536 1536 1536 1536 1535 1535 1534 1534 1533 1533 1532 1531 1531 1530 1530 1530 1529 1529 1529 1529 1529 1529 1528 1528 1527 1526 1526 1525 1524 1523 1522 1521
1534 1535 1536 1536 1536 1537 1537 1537 1537 1538 1538 1538 1538 1537 1537 1536 1536 1535 1534 1533 1532 1532 1531 1530 1530 1529 1529 1529 1528 1528 1528 1528 1528 1528 1528 1527 1527 1526 1525 1525 1524 1523 1522
1536 1537 1537 1538 1538 1538 1539 1539 1539 1539 1539 1539 1539 1538 1538 1537 1536 1536 1535 1534 1533 1532 1531 1530 1530 1529 1528 1528 1528 1528 1528 1528 1528 1528 1528 1527 1527 1527 1526 1525 1525 1524 1523
1538 1539 1539 1540 1540 1540 1540 1540 1541 1541 1541 1540 1540 1539 1539 1538 1537 1536 1535 1534 1533 1532 1531 1531 1530 1529 1528 1528 1528 1527 1527 1527 1527 1527 1527 1527 1527 1527 1527 1526 1525 1525 1524
1540 1541 1541 1541 1542 1542 1542 1543 1543 1543 1542 1542 1541 1541 1540 1539 1538 1537 1536 1535 1534 1533 1532 1531 1530 1529 1528 1528 1527 1527 1527 1527 1527 1527 1527 1527 1528 1527 1527 1527 1526 1525 1524
1542 1543 1543 1543 1544 1544 1544 1544 1544 1544 1544 1543 1543 1542 1541 1540 1539 1537 1536 1535 1534 1533 1532 1531 1530 1529 1528 1528 1527 1527 1526 1527 1527 1527 1527 1527 1527 1527 1527 1527 1527 1526 1525
1543 1544 1545 1545 1545 1546 1546 1546 1546 1546 1545 1545 1544 1543 1541 1540 1539 1538 1537 1535 1534 1533 1532 1531 1530 1529 1528 1528 1527 1527 1527 1526 1527 1527 1527 1527 1527 1527 1527 1527 1527 1527 1526
1545 1545 1546 1547 1547 1547 1547 1548 1547 1547 1546 1546 1545 1543 1542 1541 1540 1538 1537 1536 1534 1533 1532 1530 1529 1528 1528 1527 1527 1527 1527 1526 1527 1527 1527 1527 1527 1527 1527 1527 1527 1527 1526
1546 1547 1547 1548 1548 1549 1549 1549 1549 1548 1548 1547 1546 1544 1543 1542 1540 1539 1537 1536 1535 1533 1532 1530 1529 1528 1528 1527 1527 1526 1526 1526 1526 1526 1526 1527 1527 1527 1527 1527 1527 1527 1526
1547 1548 1549 1549 1550 1550 1550 1550 1550 1549 1549 1548 1547 1545 1544 1542 1541 1539 1538 1536 1535 1533 1532 1530 1529 1528 1528 1527 1526 1526 1526 1526 1526 1526 1526 1526 1527 1527 1527 1527 1527 1527 1526
1548 1549 1550 1550 1551 1551 1551 1551 1551 1550 1550 1549 1547 1546 1544 1543 1541 1540 1538 1537 1535 1534 1532 1531 1529 1529 1528 1527 1526 1526 1526 1526 1526 1526 1526 1526 1526 1527 1527 1527 1527 1527 1526
1549 1550 1551 1551 1552 1552 1552 1552 1552 1551 1551 1550 1548 1546 1545 1544 1542 1541 1539 1537 1536 1534 1533 1531 1530 1529 1528 1527 1526 1526 1525 1525 1526 1526 1526 1526 1527 1527 1527 1528 1528 1527 1526
1550 1551 1552 1552 1553 1553 1553 1553 1553 1552 1552 1551 1549 1547 1546 1545 1543 1541 1540 1538 1536 1535 1533 1532 1530 1529 1528 1527 1527 1526 1526 1526 1526 1526 1526 1527 1527 1527 1528 1528 1528 1528 1526
1551 1552 1553 1553 1553 1554 1554 1554 1554 1554 1553 1552 1550 1549 1547 1546 1544 1542 1541 1539 1538 1536 1535 1533 1531 1530 1529 1528 1527 1527 1526 1526 1526 1526 1527 1527 1527 1528 1528 1528 1529 1528 1528
1551 1553 1553 1554 1554 1555 1555 1555 1555 1555 1554 1553 1552 1550 1549 1547 1545 1544 1542 1540 1539 1537 1536 1534 1532 1531 1530 1529 1528 1528 1527 1527 1527 1527 1527 1528 1528 1528 1529 1529 1529 1529 1529
1552 1553 1554 1555 1555 1556 1556 1556 1556 1556 1555 1554 1553 1552 1550 1549 1547 1545 1544 1542 1541 1539 1537 1535 1534 1532 1531 1530 1529 1529 1529 1528 1528 1528 1528 1528 1529 1529 1529 1530 1530 1530 1531
1552 1553 1555 1555 1556 1556 1557 1557 1557 1557 1556 1555 1554 1553 1552 1550 1549 1547 1545 1544 1542 1540 1539 1537 1535 1534 1532 1531 1531 1530 1530 1530 1530 1529 1529 1529 1530 1530 1530 1530 1531 1531 1531
1552 1553 1555 1556 1557 1557 1558 1558 1558 1557 1557 1556 1555 1554 1553 1552 1550 1549 1547 1546 1544 1542 1540 1539 1537 1535 1534 1533 1532 1532 1532 1533 1531 1531 1530 1530 1530 1530 1531 1531 1531 1531 1532
1551 1553 1555 1556 1557 1558 1558 1558 1558 1558 1558 1557 1556 1555 1554 1553 1552 1550 1549 1547 1546 1544 1542 1540 1539 1537 1536 1535 1534 1534 1533 1533 1533 1533 1532 1531 1531 1531 1531 1531 1532 1532 1532
1551 1553 1555 1556 1558 1558 1559 1559 1559 1559 1558 1558 1557 1556 1555 1554 1553 1552 1550 1549 1547 1546 1544 1542 1541 1539 1538 1537 1536 1536 1536 1535 1534 1534 1533 1533 1532 1532 1532 1532 1532 1532 1532
1551 1553 1555 1556 1557 1558 1559 1559 1559 1559 1559 1558 1557 1557 1556 1555 1554 1552 1551 1550 1549 1547 1546 1544 1543 1541 1540 1539 1538 1537 1537 1536 1536 1535 1534 1533 1533 1533 1532 1532 1532 1532 1532
1550 1552 1554 1556 1557 1558 1559 1559 1559 1559 1559 1558 1558 1557 1556 1555 1554 1553 1552 1551 1550 1548 1547 1546 1544 1543 1542 1540 1539 1539 1538 1537 1537 1536 1535 1534 1533 1533 1533 1532 1532 1532 1532